Início
Estação Aeroclube
Estação São Gotardo
Temperatura
Umidade
Pressão Atmosférica
Vento
Precipitação
Configuração do gráfico
Período
v
     
 
v
   
Aplicar
Linhas e valores
etiquetasséries
The Temperatura média no período chart showing Mínima series, Máxima series, Média series, Sensação térmica series.
   
Hora
Temperatura média
Temperatura máxima
Temperatura mínima
Sensação térmica
Data: 21/05/2019
 16:00:0017,0417,1316,9717,12
 15:00:0016,8617,1316,5916,83
 14:00:0016,5716,6916,2416,41
 13:00:0016,4116,6915,9516,03
 12:00:0015,8116,3115,5315,36
 11:00:0015,3615,6115,2314,95
 10:00:0015,3215,4915,1215,23
 09:00:0015,4315,6715,1715,09
 08:00:0015,8516,2615,5315,68
 07:00:0016,2816,4316,1816,46
 06:00:0016,5516,9916,2816,78
 05:00:0017,117,4116,8716,69
 04:00:0017,8418,3417,3217,61
 03:00:0017,9518,0517,8118,1
 02:00:0017,9818,1717,8418,24
 01:00:0018,1918,3817,9918,57
 00:00:0018,6118,8918,219,37
Data: 20/05/2019
 23:00:0018,6618,8518,4919,61
 22:00:0018,8418,9418,5919,81
 21:00:0018,4918,7518,3819,17
 20:00:0018,3518,4218,318,82
 19:00:0018,5118,8518,2419,19
 18:00:0019,219,8118,7619,69
 17:00:0020,2222,5819,6921,2
 16:00:002324,5920,9824,69
 15:00:0024,0324,7723,4925,55
 14:00:0023,6724,6322,7324,99
 13:00:0022,9623,4122,3224,35
 12:00:0022,6523,4121,9823,88
 11:00:0021,822,5121,1522,87
 10:00:0021,0321,9619,5522,04
 09:00:0018,7920,0717,719,42
 08:00:0017,6618,1317,2118,45
 07:00:0016,7417,316,0617,46
 06:00:001616,3615,8216,55
 05:00:0016,1916,4515,9416,83
 04:00:0016,9317,3216,0518,31
 03:00:0017,617,9217,2218,58
 02:00:0017,7117,8817,4918,63
 01:00:0017,5617,8717,3918,27
 00:00:0017,7418,117,4418,32
Data: 19/05/2019 (Continua na próxima página)
 23:00:0018,1618,4617,9618,57
 22:00:0018,1818,517,8718,85
 21:00:0018,4518,5618,2918,97
 20:00:0018,4318,5718,1418,94
 19:00:0018,4918,7118,1418,91
 18:00:0018,8619,6918,3119,45
Página 1 de 4 (193 itens)
Anterior
[1]
2
3
4
Próxima